Akron, CO

2:52 AM MST on February 11, 2016 (GMT -0700)
Akron-Washington County

Weather History for KAKO - September, 2013

Change the Weather History Date:

Sunday, September 1, 2013

  Actual Average Record
Temperature  
Mean Temperature 70 °F 69 °F  
Max Temperature 82 °F 83 °F 98 °F (1995)
Min Temperature 58 °F 55 °F 40 °F (1952)
Degree Days  
Heating Degree Days 0    
Month to date heating degree days 0  
Cooling Degree Days 5    
Month to date cooling degree days 5  
Growing Degree Days 21 (Base 50)    
Moisture  
Dew Point 50 °F    
Average Humidity 59    
Maximum Humidity 90    
Minimum Humidity 28    
Precipitation  
Precipitation 0.00 in 0.05 in 1.23 in (1951)
Month to date precipitation 0.00 0.05  
Year to date precipitation 11.42 13.54  
Sea Level Pressure  
Sea Level Pressure 30.02 in    
Wind  
Wind Speed 10 mph (SE)    
Max Wind Speed 20 mph    
Max Gust Speed 26 mph    
Visibility 10 miles    
Events      
T = Trace of Precipitation, MM = Missing Value Source: NWS Daily Summary

Daily Weather History Graph

Daily Weather History Graph

Search for Another Location

Airport or City:

Trip Planner

Search our weather history database for the weather conditions in past years. The results will help you decide how hot, cold, wet, or windy it might be!

Date:

Astronomy

Sep. 01, 2013 Rise Set
Actual Time 6:20 AM MDT 7:24 PM MDT
Civil Twilight 5:52 AM MDT 7:51 PM MDT
Nautical Twilight 5:19 AM MDT 8:24 PM MDT
Astronomical Twilight 4:45 AM MDT 8:59 PM MDT
Moon 2:44 AM MDT (9/1) 5:03 PM MDT (9/1)
Length of Visible Light 13h 58m
Length of Day
13h 03m
Waning Crescent, 13% of the Moon is Illuminated
Sep 1
Waning Crescent
Sep 5
New
Sep 12
First Quarter
Sep 19
Full
Sep 26
Last Quarter

Hourly Weather History & Observations

Time (MDT) Temp. Dew Point Humidity Pressure Visibility Wind Dir Wind Speed Gust Speed Precip Events Conditions
12:53 AM 66.9 °F 57.9 °F 73% 29.92 in 10.0 mi ENE 10.4 mph - N/A   Clear
1:53 AM 66.9 °F 57.9 °F 73% 29.92 in 10.0 mi NE 12.7 mph - N/A   Clear
2:53 AM 64.9 °F 57.9 °F 78% 29.94 in 10.0 mi ENE 9.2 mph - N/A   Clear
3:53 AM 62.1 °F 57.0 °F 84% 29.96 in 10.0 mi East 5.8 mph - N/A   Clear
4:53 AM 60.1 °F 57.0 °F 90% 29.96 in 10.0 mi ENE 9.2 mph - N/A   Clear
5:53 AM 61.0 °F 54.0 °F 78% 29.99 in 10.0 mi ENE 8.1 mph - N/A   Clear
6:53 AM 60.1 °F 53.1 °F 78% 30.05 in 10.0 mi Variable 4.6 mph - N/A   Overcast
7:53 AM 63.0 °F 48.9 °F 60% 30.06 in 10.0 mi ENE 11.5 mph - N/A   Partly Cloudy
8:53 AM 66.9 °F 46.9 °F 49% 30.06 in 10.0 mi ENE 11.5 mph - N/A   Clear
9:53 AM 71.1 °F 44.1 °F 38% 30.08 in 10.0 mi East 11.5 mph 19.6 mph N/A   Clear
10:53 AM 73.0 °F 43.0 °F 34% 30.07 in 10.0 mi ESE 10.4 mph - N/A   Clear
11:53 AM 75.9 °F 44.1 °F 32% 30.08 in 10.0 mi SSE 11.5 mph - N/A   Clear
12:53 PM 77.0 °F 46.0 °F 33% 30.06 in 10.0 mi SSE 10.4 mph - N/A   Clear
1:53 PM 80.1 °F 46.0 °F 30% 30.03 in 10.0 mi SSE 6.9 mph 16.1 mph N/A   Clear
2:53 PM 80.1 °F 45.0 °F 29% 30.01 in 10.0 mi South 10.4 mph 18.4 mph N/A   Clear
3:53 PM 82.0 °F 46.9 °F 29% 29.99 in 10.0 mi South 12.7 mph - N/A   Clear
4:53 PM 82.0 °F 48.0 °F 30% 29.99 in 10.0 mi SSE 13.8 mph - N/A   Clear
5:53 PM 80.1 °F 48.0 °F 32% 30.00 in 10.0 mi South 11.5 mph 23.0 mph N/A   Clear
6:53 PM 78.1 °F 50.0 °F 37% 30.01 in 10.0 mi SSE 10.4 mph - N/A   Clear
7:53 PM 73.0 °F 50.0 °F 44% 30.02 in 10.0 mi SSE 10.4 mph - N/A   Clear
8:53 PM 71.1 °F 53.1 °F 53% 30.03 in 10.0 mi South 11.5 mph - N/A   Clear
9:53 PM 68.0 °F 53.1 °F 59% 30.04 in 10.0 mi South 10.4 mph - N/A   Clear
10:53 PM 63.0 °F 52.0 °F 67% 30.06 in 10.0 mi South 11.5 mph - N/A   Clear
11:53 PM 61.0 °F 51.1 °F 70% 30.04 in 10.0 mi South 9.2 mph - N/A   Clear